9M8ZAL-13 Weather Reports


Display with metric or nautical units.
time (UTC)temp
F
wind
direction
speed
MPH
gust
MPH
rain 1hr
in
rain 24hr
in
rain mn
in
humidity
%
barometer
mb
20260504175340 81 0.0 0.0 0.00 0.00 0.00 1009.4
20260504174340 80 0.0 0.0 0.00 0.00 0.00 1009.5
20260504173340 80 0.0 0.0 0.00 0.00 0.00 1009.3
20260504172340 80 0.0 0.0 0.00 0.00 0.00 1009.6
20260504171340 79 0.0 0.0 0.00 0.00 0.00 1009.6
20260504170340 79 0.0 0.0 0.00 0.00 0.00 1009.9
20260504160340 81 0.0 0.0 0.00 0.00 0.00 1010.1
20260504150339 81 0.0 0.0 0.00 0.00 0.00 1009.9
20260504140339 81 0.0 0.0 0.00 0.00 0.00 1009.8
20260504130339 82 0.0 0.0 0.00 0.00 0.00 1009.4
20260504110339 83 0.0 0.0 0.00 0.00 0.00 1008.4
20260504100339 85 0.0 0.0 0.00 0.00 0.00 1007.8
20260504081338 93 0.0 0.0 0.00 0.00 0.00 1006.0
20260504080338 94 0.0 0.0 0.00 0.00 0.00 1006.1
20260504070338 94 0.0 0.0 0.00 0.00 0.00 1006.1
20260504050337 91 0.0 0.0 0.00 0.00 0.00 1008.5
20260504045338 90 0.0 0.0 0.00 0.00 0.00 1008.8
20260504044337 89 0.0 0.0 0.00 0.00 0.00 1008.9
20260504043338 89 0.0 0.0 0.00 0.00 0.00 1009.1
20260504042337 89 0.0 0.0 0.00 0.00 0.00 1009.3
20260504041337 88 0.0 0.0 0.00 0.00 0.00 1009.6
20260504040337 87 0.0 0.0 0.00 0.00 0.00 1009.8
20260504035337 87 0.0 0.0 0.00 0.00 0.00 1009.8
20260504034337 85 0.0 0.0 0.00 0.00 0.00 1009.9
20260504033337 85 0.0 0.0 0.00 0.00 0.00 1010.1
20260504032337 84 0.0 0.0 0.00 0.00 0.00 1010.1
20260504031337 83 0.0 0.0 0.00 0.00 0.00 1010.3
20260504030337 83 0.0 0.0 0.00 0.00 0.00 1010.6
20260504025337 82 0.0 0.0 0.00 0.00 0.00 1010.5
20260504023337 82 0.0 0.0 0.00 0.00 0.00 1010.7
20260504022337 82 0.0 0.0 0.00 0.00 0.00 1010.8
20260504021337 82 0.0 0.0 0.00 0.00 0.00 1010.9
20260504020337 83 0.0 0.0 0.00 0.00 0.00 1011.0
20260504015337 83 0.0 0.0 0.00 0.00 0.00 1010.8
20260504014337 83 0.0 0.0 0.00 0.00 0.00 1010.8
20260504013337 83 0.0 0.0 0.00 0.00 0.00 1010.7
20260504012337 83 0.0 0.0 0.00 0.00 0.00 1010.7
20260504011337 83 0.0 0.0 0.00 0.00 0.00 1010.6
20260504010337 83 0.0 0.0 0.00 0.00 0.00 1010.4
20260504005336 83 0.0 0.0 0.00 0.00 0.00 1010.5
20260504004336 82 0.0 0.0 0.00 0.00 0.00 1010.3
20260504003336 82 0.0 0.0 0.00 0.00 0.00 1010.3
20260504002336 83 0.0 0.0 0.00 0.00 0.00 1010.1
20260504001336 82 0.0 0.0 0.00 0.00 0.00 1009.8
20260504000336 82 0.0 0.0 0.00 0.00 0.00 1009.6
20260503235336 82 0.0 0.0 0.00 0.00 0.00 1009.1
20260503234336 82 0.0 0.0 0.00 0.00 0.00 1009.0
20260503233336 82 0.0 0.0 0.00 0.00 0.00 1008.9
20260503232336 83 0.0 0.0 0.00 0.00 0.00 1008.6
20260503231337 82 0.0 0.0 0.00 0.00 0.00 1008.5
20260503230336 83 0.0 0.0 0.00 0.00 0.00 1008.1
20260503225336 82 0.0 0.0 0.00 0.00 0.00 1007.9
20260503224336 81 0.0 0.0 0.00 0.00 0.00 1008.0
20260503223336 81 0.0 0.0 0.00 0.00 0.00 1008.1
20260503222336 81 0.0 0.0 0.00 0.00 0.00 1008.0
20260503221336 80 0.0 0.0 0.00 0.00 0.00 1007.9
20260503220336 81 0.0 0.0 0.00 0.00 0.00 1007.9
20260503215336 80 0.0 0.0 0.00 0.00 0.00 1008.1
20260503214336 81 0.0 0.0 0.00 0.00 0.00 1008.2
20260503213336 80 0.0 0.0 0.00 0.00 0.00 1008.2
20260503212336 80 0.0 0.0 0.00 0.00 0.00 1008.3
20260503211336 80 0.0 0.0 0.00 0.00 0.00 1008.1
20260503210336 80 0.0 0.0 0.00 0.00 0.00 1008.2
20260503205336 80 0.0 0.0 0.00 0.00 0.00 1008.3
20260503204336 81 0.0 0.0 0.00 0.00 0.00 1008.2
20260503203336 80 0.0 0.0 0.00 0.00 0.00 1008.2
20260503202336 81 0.0 0.0 0.00 0.00 0.00 1008.1
20260503201336 81 0.0 0.0 0.00 0.00 0.00 1008.0
20260503200336 81 0.0 0.0 0.00 0.00 0.00 1007.9
20260503195336 80 0.0 0.0 0.00 0.00 0.00 1007.8
20260503194339 80 0.0 0.0 0.00 0.00 0.00 1007.7
20260503193335 81 0.0 0.0 0.00 0.00 0.00 1007.8
20260503192336 82 0.0 0.0 0.00 0.00 0.00 1007.8
20260503191336 81 0.0 0.0 0.00 0.00 0.00 1008.0
20260503190336 81 0.0 0.0 0.00 0.00 0.00 1008.1
20260503185335 80 0.0 0.0 0.00 0.00 0.00 1008.3
20260503184336 82 0.0 0.0 0.00 0.00 0.00 1008.5
20260503183335 81 0.0 0.0 0.00 0.00 0.00 1008.7
20260503182335 82 0.0 0.0 0.00 0.00 0.00 1008.6
20260503181335 80 0.0 0.0 0.00 0.00 0.00 1008.5
20260503180335 81 0.0 0.0 0.00 0.00 0.00 1008.7